TimeCDT,TemperatureF,Dew PointF,Humidity,Sea Level PressureIn,VisibilityMPH,Wind Direction,Wind SpeedMPH,Gust SpeedMPH,PrecipitationIn,Events,Conditions,WindDirDegrees,DateUTC
12:53 AM,28.0,23.0,81,30.11,10.0,WSW,3.5,-,N/A,,Clear,250,2012-10-10 05:53:00
1:53 AM,27.0,21.9,81,30.12,10.0,WSW,9.2,-,N/A,,Clear,250,2012-10-10 06:53:00
2:53 AM,28.0,24.1,85,30.12,10.0,West,8.1,-,N/A,,Clear,260,2012-10-10 07:53:00
3:53 AM,28.9,24.1,82,30.12,10.0,West,9.2,-,N/A,,Clear,270,2012-10-10 08:53:00
5:53 AM,28.0,23.0,81,30.16,10.0,West,9.2,-,N/A,,Clear,280,2012-10-10 10:53:00
6:53 AM,24.1,21.0,88,30.17,10.0,WNW,6.9,-,N/A,,Clear,290,2012-10-10 11:53:00
7:53 AM,24.1,19.9,84,30.19,10.0,West,6.9,-,N/A,,Clear,280,2012-10-10 12:53:00
8:53 AM,32.0,25.0,75,30.21,10.0,West,9.2,-,N/A,,Clear,270,2012-10-10 13:53:00
9:53 AM,39.0,30.0,70,30.22,10.0,West,6.9,-,N/A,,Clear,270,2012-10-10 14:53:00
10:53 AM,46.0,30.0,54,30.21,10.0,West,9.2,-,N/A,,Clear,260,2012-10-10 15:53:00
11:53 AM,50.0,27.0,41,30.19,10.0,West,12.7,20.7,N/A,,Clear,260,2012-10-10 16:53:00
12:53 PM,53.1,23.0,31,30.18,10.0,WSW,17.3,21.9,N/A,,Clear,250,2012-10-10 17:53:00
1:53 PM,55.9,21.9,27,30.13,10.0,West,12.7,-,N/A,,Clear,270,2012-10-10 18:53:00
2:53 PM,57.9,21.9,25,30.10,10.0,West,15.0,23.0,N/A,,Clear,260,2012-10-10 19:53:00
3:53 PM,59.0,21.0,23,30.07,10.0,WSW,13.8,21.9,N/A,,Clear,250,2012-10-10 20:53:00
4:53 PM,59.0,23.0,25,30.04,10.0,SSW,16.1,21.9,N/A,,Clear,210,2012-10-10 21:53:00
5:53 PM,59.0,26.1,28,30.02,10.0,SW,10.4,-,N/A,,Clear,220,2012-10-10 22:53:00
6:53 PM,53.1,28.0,38,30.02,10.0,SSW,10.4,-,N/A,,Clear,200,2012-10-10 23:53:00
7:53 PM,46.9,28.9,50,30.02,10.0,South,8.1,-,N/A,,Clear,180,2012-10-11 00:53:00
8:53 PM,46.9,30.0,52,30.00,10.0,South,11.5,-,N/A,,Clear,180,2012-10-11 01:53:00
9:53 PM,46.9,30.0,52,29.98,10.0,South,12.7,-,N/A,,Clear,190,2012-10-11 02:53:00
10:53 PM,51.1,30.0,44,29.95,10.0,SSW,20.7,24.2,N/A,,Clear,200,2012-10-11 03:53:00
11:53 PM,50.0,30.0,46,29.94,10.0,SSW,16.1,-,N/A,,Clear,200,2012-10-11 04:53:00